Regional Weather Roundup
Issued by NWS Austin/San Antonio, TX

Current Version | Previous Version | Text Only | Print | Product List | Glossary Off
Versions: 1 2 3 4 5 6 7 8 9 10 11 12 13 14 15 16 17 18 19 20 21 22 23 24 25 26 27 28 29 30 31 32 33 34 35 36 37 38 39 40 41 42 43 44 45 46 47 48 49 50

000
ASUS44 KEWX 052310
RWREWX
SOUTH TEXAS REGIONAL WEATHER ROUNDUP
NATIONAL WEATHER SERVICE AUSTIN/SAN ANTONIO TX
600 PM CDT SUN JUL 05 2020

NOTE: "FAIR" INDICATED FEW OR NO CLOUDS BELOW 12,000 FEET WITH NO
SIGNIFICANT WEATHER AND/OR OBSTRUCTIONS TO VISIBILITY.

* - THESE STATIONS ARE NOT NWS OR FAA STATIONS...AND ARE NOT SUBJECT
    TO NWS AND FAA QUALITY CONTROL.

TXZ171-172-183>190-060000-
TEXAS HILL COUNTRY AND EDWARDS PLATEAU

CITY           SKY/WX    TMP DP  RH WIND       PRES   REMARKS
JUNCTION       PTSUNNY   92  67  43 SE7       29.85F HX  95
*LLANO         PTSUNNY   84  70  61 SW15G22   29.84R
BURNET         LGT RAIN  89  70  53 W13G18    29.83S HX  94
*HORSESHOE BAY PTSUNNY   99  57  25 S3        29.80S HX  97
*LAGO VISTA    SUNNY     95  67  39 SE12G17   29.83S HX  98
*KERRVILLE     SUNNY     99  55  22 S8        29.83F HX  97
*FREDERICKSBRG PTSUNNY   96  56  26 S6        29.84F HX  94
*ROCKSPRINGS   PTSUNNY   99  57  25 S7G14     29.90F HX  97
*BOERNE        SUNNY     97  55  24 S6        29.84S HX  95
*CASTROVILLE   SUNNY    103  57  21 MISG      29.79F HX 103
HONDO          SUNNY    102  61  25 SE12      29.77F HX 103
*UVALDE          N/A    103  56  21 SE3G9     29.77F HX 101
DEL RIO        SUNNY    109  46  12 SE10G20   29.73F HX 105
*LAUGHLIN AFB  SUNNY    106  49  14 S15       29.73F HX 103
*SPOFFORD      NOT AVBL
*EAGLE PASS    NOT AVBL
CARRIZO SPRGS  MOSUNNY  106  54  17 S10       29.72F HX 104
$$

TXZ173-191>194-202-209-217>225-228-060000-
CENTRAL AND SOUTH CENTRAL TEXAS

CITY           SKY/WX    TMP DP  RH WIND       PRES   REMARKS
GEORGETOWN     MOSUNNY   95  67  39 SE10      29.81F HX  99
*TAYLOR        MOSUNNY   94  68  42 S9        29.79F HX  99
AUSTIN/BERGSTM MOSUNNY   96  71  44 SE10      29.79F HX 103
AUSTIN/MABRY   MOSUNNY   98  68  37 S7        29.80F HX 103
*PFLUGERVILLE  MOSUNNY   95  66  38 S9        29.80F HX  98
SAN MARCOS     SUNNY     98  68  37 SE13      29.79F HX 103
NEW BRAUNFELS  SUNNY    102  59  24 S13G18    29.77F HX 102
*RANDOLPH AFB  SUNNY    101  58  24 S12       29.78F HX 100
*SEGUIN        SUNNY     99  65  32 SE10      29.81F HX 102
SAN ANTONIO    MOSUNNY  101  60  25 SE10G17   29.79F HX 101
STINSON FIELD  SUNNY     99  59  26 SE13      29.75F HX  99
*KELLY FIELD   SUNNY    101  61  26 SE10      29.76F HX 102
*PLEASANTON    SUNNY    101  69  35 SE9       29.77F HX 107
*KENEDY        SUNNY     97  68  38 S10       29.79F HX 102
*LA GRANGE     PTSUNNY   98  72  43 S12       29.78F HX 106
*GIDDINGS      PTSUNNY   99  68  35 SE6       29.81F HX 104
*GONZALES      CLOUDY    98  69  38 SE7       29.78F HX 104
$$

TXZ163>164-176>182-195>201-210>213-226-227-235-060000-
SOUTHEAST TEXAS

CITY           SKY/WX    TMP DP  RH WIND       PRES   REMARKS
COLLEGE STN    PTSUNNY   92  75  57 S14       29.80F HX 103
*BRYAN         PTSUNNY   91  77  63 SE13      29.81F HX 103
*CALDWELL      PTSUNNY   93  74  54 SE12      29.80F HX 103
*CROCKETT      NOT AVBL
*BRENHAM       PTSUNNY   92  76  59 SE8       29.81F HX 104
HUNTSVILLE     MOSUNNY   90  73  57 S8        29.81F HX  98
CONROE         PTSUNNY   89  75  63 S5        29.82F HX  99
HOUSTON BUSH   CLOUDY    91  70  49 SW5       29.81F HX  96
HOUSTON HOBBY  CLOUDY    93  71  48 S7        29.81F HX 100
*HOUSTON SW AP CLOUDY    87  76  68 SW3       29.83F HX  98
PEARLAND       CLOUDY    92  72  51 SW3       29.83F HX  99
HOUSTON HOOKS  CLOUDY    88  72  58 CALM      29.81F HX  94
ELLINGTON FLD  PTSUNNY   91  72  52 S9        29.80F HX  98
SUGAR LAND     CLOUDY    90  75  61 S13       29.81F HX 100
*HOUSTON EXEC  CLOUDY    91  73  55 SW5       29.82F HX 100
*CLEVELAND MUN CLOUDY    88  76  67 CALM      29.82F HX  98
*WHARTON       SUNNY     90  71  53 SE9       29.83F HX  97
*COLUMBUS      FAIR      91  75  60 SE6       29.82F HX 101
*EAGLE LAKE    PTSUNNY   92  77  59 SE12      29.81F HX 105
$$

TXZ214>216-236>238-060000-
THE UPPER TEXAS COAST

CITY           SKY/WX    TMP DP  RH WIND       PRES   REMARKS
*ORANGE        PTSUNNY   86  72  62 S9        29.86F HX  92
PORT ARTHUR    PTSUNNY   86  77  74 S12       29.82F HX  97
GALVESTON      MOSUNNY   88  77  69 S17       29.84F HX 100
ANGLETON       PTSUNNY   90  73  57 S7        29.84S HX  98
*BAY CITY      SUNNY     91  76  60 S8        29.84S HX 102
PALACIOS       SUNNY     88  77  69 S10       29.83F HX 100
$$

TXZ229>234-239>247-060000-
TEXAS COASTAL BEND AND RIO GRANDE PLAINS

CITY           SKY/WX    TMP DP  RH WIND       PRES   REMARKS
VICTORIA       SUNNY     96  73  47 S16       29.80F HX 105
*BEEVILLE      SUNNY     98  76  47 S10       29.78F HX 112
ROCKPORT       SUNNY     88  77  69 SE15      29.80F HX 100
*PORT ARANSAS  SUNNY     86  78  76 SE15      29.82F HX  97
*PORT LAVACA   SUNNY     93  78  61 S12       29.82F HX 109
*INGLESIDE     SUNNY     89  79  70 S17       29.80F HX 104
CORPUS CHRISTI PTSUNNY   89  78  70 S15       29.79F HX 103
CORPUS NAS     SUNNY     87  79  76 S21       29.80F HX 101
*ROBSTOWN      SUNNY     94  77  57 SE15      29.79S HX 108
ALICE          MOSUNNY  100  68  35 SE8       29.77S HX 105
KINGSVILLE NAS PTSUNNY   94  76  55 SE17      29.77F HX 106
COTULLA        MOSUNNY  107  58  20 VRB7G20   29.73F HX 107
LAREDO         MOSUNNY  105  56  19 S6        29.74F HX 104
$$

TXZ248>255-060000-
DEEP SOUTH TEXAS

CITY           SKY/WX    TMP DP  RH WIND       PRES   REMARKS
BROWNSVILLE    SUNNY     92  74  55 S17       29.80F HX 101
PORT ISABEL    SUNNY     92  74  55 S17G24    29.79F HX 101
HARLINGEN      SUNNY     95  71  45 S15       29.78F HX 102
*HEBBRONVILLE  SUNNY    101  54  20 S9        29.78F HX  99
MCALLEN        SUNNY     98  71  41 SE15      29.77F HX 106
*WESLACO       SUNNY     96  67  38 S12       29.77F HX 100
FALFURRIAS     NOT AVBL
EDINBURG       SUNNY     98  62  31 SE13G18   29.77F HX  99
*ZAPATA        SUNNY    106  57  20 SE10G17   29.75F HX 105
$$

TXZ213>215-236>238-242>244-246-247-251-254-255-060000-
CMAN STATIONS

STATION/POSITION TIME  TEMP    WIND        PRES    WAVE
                       AIR SEA DIR/SP/G            HT/PER
                 (UTC) (F)     (DEG/KT/KT) (MB)    (FT/S)
SABINE PASS      2230   78 87  140/ 10/ 12 1012.5
NORTH JETTY/GLS  2230   87 87  190/ 15/ 16 1009.5
EAGLE POINT      2230   88 90  170/ 14/ 17 1009.7
MORGANS POINT    2230   89 87  140/  9/ 12 1010.0
PORT O`CONNOR    2230   84 85  180/ 12/ 15 1010.0
PORT ARANSAS     2300   83 86  140/ 15/ 17 1009.5
MALAQUITE BEACH  2230   83     130/ 17/ 19   N/A
BAFFIN BAY       2230   85 93  120/ 18/ 23 1009.4
PORT ISABEL      2230   85 83  150/ 16/ 21 1011.6
$$



USA.gov is the U.S. government's official web portal to all federal, state and local government web resources and services.